FW0153 Weather Reports


Display with metric or nautical units.
time (UTC)temp
F
wind
direction
speed
MPH
gust
MPH
rain 1hr
in
rain 24hr
in
rain mn
in
humidity
%
barometer
mb
20260504050505 69 67 4.0 0.0 0.00 0.00 0.00 75 1018.8
20260504045505 69 71 4.0 0.0 0.00 0.00 0.00 75 1019.5
20260504045005 69 59 9.0 0.0 0.00 0.00 0.00 74 1019.5
20260504044505 69 92 0.0 0.0 0.00 0.00 0.00 74 1019.5
20260504044005 69 71 4.0 0.0 0.00 0.00 0.00 73 1019.5
20260504043505 69 80 4.0 0.0 0.00 0.00 0.00 73 1019.5
20260504043211 69 76 4.0 0.0 0.00 0.00 0.00 73 1019.5
20260504042505 69 36 4.0 0.0 0.00 0.00 0.00 73 1019.8
20260504042005 69 95 9.0 0.0 0.00 0.00 0.00 72 1019.5
20260504041505 69 54 9.0 0.0 0.00 0.00 0.00 72 1019.8
20260504041005 69 74 4.0 0.0 0.00 0.00 0.00 72 1019.5
20260504040505 69 92 0.0 0.0 0.00 0.00 0.00 72 1019.8
20260504040005 69 81 0.0 0.0 0.00 0.00 0.00 72 1019.8
20260504035505 70 59 4.0 0.0 0.00 0.00 0.00 71 1019.5
20260504035005 70 61 9.0 0.0 0.00 0.00 0.00 71 1020.1
20260504034505 70 86 9.0 0.0 0.00 0.00 0.00 70 1019.8
20260504034005 70 64 0.0 0.0 0.00 0.00 0.00 70 1019.8
20260504033712 70 75 4.0 0.0 0.00 0.00 0.00 70 1019.8
20260504033005 70 78 0.0 0.0 0.00 0.00 0.00 70 1019.8
20260504032505 70 75 0.0 0.0 0.00 0.00 0.00 69 1019.5
20260504032005 70 76 4.0 0.0 0.00 0.00 0.00 69 1019.8
20260504031505 70 79 0.0 0.0 0.00 0.00 0.00 68 1019.5
20260504031005 70 76 0.0 0.0 0.00 0.00 0.00 68 1019.5
20260504030505 71 69 0.0 0.0 0.00 0.00 0.00 67 1019.5
20260504030213 71 85 4.0 0.0 0.00 0.00 0.00 67 1019.5
20260504025712 71 55 0.0 0.0 0.00 0.00 0.00 66 1019.5
20260504025005 71 77 4.0 0.0 0.00 0.00 0.00 66 1019.1
20260504024505 71 85 9.0 0.0 0.00 0.00 0.00 65 1019.1
20260504024005 71 66 0.0 0.0 0.00 0.00 0.00 65 1019.5
20260504023505 71 66 0.0 0.0 0.00 0.00 0.00 65 1019.5
20260504023005 71 52 4.0 0.0 0.00 0.00 0.00 64 1019.5
20260504022504 71 91 0.0 0.0 0.00 0.00 0.00 64 1019.1
20260504022005 71 28 4.0 0.0 0.00 0.00 0.00 63 1019.1
20260504021714 71 121 13.0 0.0 0.00 0.00 0.00 63 1018.8
20260504021212 71 89 9.0 0.0 0.00 0.00 0.00 62 1019.1
20260504020713 71 52 0.0 0.0 0.00 0.00 0.00 61 1019.1
20260504020213 71 46 4.0 0.0 0.00 0.00 0.00 61 1019.1
20260504015505 71 114 4.0 0.0 0.00 0.00 0.00 60 1018.8
20260504015005 72 81 9.0 0.0 0.00 0.00 0.00 59 1018.8
20260504014505 72 49 9.0 0.0 0.00 0.00 0.00 59 1018.8
20260504014005 72 79 0.0 0.0 0.00 0.00 0.00 58 1018.8
20260504013713 72 47 0.0 0.0 0.00 0.00 0.00 58 1018.4
20260504013005 72 42 9.0 0.0 0.00 0.00 0.00 56 1018.4
20260504012711 73 20 4.0 0.0 0.00 0.00 0.00 56 1018.4
20260504012212 73 35 9.0 0.0 0.00 0.00 0.00 56 1018.4
20260504011505 73 63 4.0 0.0 0.00 0.00 0.00 55 1018.4
20260504011005 73 70 4.0 0.0 0.00 0.00 0.00 54 1018.4
20260504010505 73 19 9.0 0.0 0.00 0.00 0.00 54 1018.4
20260504010005 74 91 18.0 0.0 0.00 0.00 0.00 54 1018.4
20260504005505 74 42 4.0 0.0 0.00 0.00 0.00 53 1018.4
20260504005005 74 65 0.0 0.0 0.00 0.00 0.00 53 1018.8
20260504004505 74 66 13.0 0.0 0.00 0.00 0.00 53 1018.4
20260504004004 74 53 4.0 0.0 0.00 0.00 0.00 52 1018.4
20260504003505 74 14 13.0 0.0 0.00 0.00 0.00 51 1018.4
20260504002505 74 32 13.0 0.0 0.00 0.00 0.00 51 1018.4
20260504002005 75 36 13.0 0.0 0.00 0.00 0.00 50 1018.4
20260504001505 75 66 4.0 0.0 0.00 0.00 0.00 50 1018.4
20260504001005 76 58 18.0 0.0 0.00 0.00 0.00 49 1018.4
20260504000505 76 146 9.0 0.0 0.00 0.00 0.00 49 1018.4
20260504000005 76 102 9.0 0.0 0.00 0.00 0.00 49 1018.1
20260503235505 76 49 9.0 0.0 0.00 0.00 0.00 49 1018.1
20260503235212 77 76 0.0 0.0 0.00 0.00 0.00 49 1018.4
20260503234713 77 64 4.0 0.0 0.00 0.00 0.00 49 1018.1
20260503234005 76 80 4.0 0.0 0.00 0.00 0.00 49 1018.1
20260503233505 77 15 4.0 0.0 0.00 0.00 0.00 48 1018.4
20260503233005 77 17 9.0 0.0 0.00 0.00 0.00 48 1018.4
20260503232505 77 62 9.0 0.0 0.00 0.00 0.00 47 1018.4
20260503232004 77 3 13.0 0.0 0.00 0.00 0.00 47 1018.4
20260503231505 78 63 0.0 0.0 0.00 0.00 0.00 47 1018.4
20260503231005 78 32 4.0 0.0 0.00 0.00 0.00 46 1018.1
20260503230505 77 31 4.0 0.0 0.00 0.00 0.00 45 1018.4
20260503230005 77 72 0.0 0.0 0.00 0.00 0.00 47 1018.1
20260503225505 78 47 4.0 0.0 0.00 0.00 0.00 46 1018.4
20260503225005 77 78 13.0 0.0 0.00 0.00 0.00 46 1018.4
20260503224504 78 120 4.0 0.0 0.00 0.00 0.00 45 1018.4
20260503224005 79 59 9.0 0.0 0.00 0.00 0.00 44 1018.4
20260503223505 78 30 4.0 0.0 0.00 0.00 0.00 46 1018.4
20260503223005 77 35 9.0 0.0 0.00 0.00 0.00 46 1018.8
20260503222505 78 74 9.0 0.0 0.00 0.00 0.00 45 1018.8
20260503222213 79 27 13.0 0.0 0.00 0.00 0.00 44 1018.8
20260503221505 79 81 13.0 0.0 0.00 0.00 0.00 44 1018.8
20260503221005 79 72 13.0 0.0 0.00 0.00 0.00 44 1019.1
20260503220712 80 47 4.0 0.0 0.00 0.00 0.00 44 1018.8
20260503220005 78 88 0.0 0.0 0.00 0.00 0.00 47 1019.1
20260503215505 79 57 13.0 0.0 0.00 0.00 0.00 43 1019.1
20260503215005 80 57 0.0 0.0 0.00 0.00 0.00 44 1019.5
20260503214505 80 358 9.0 0.0 0.00 0.00 0.00 44 1019.5
20260503214004 80 87 13.0 0.0 0.00 0.00 0.00 43 1019.5
20260503213505 80 60 13.0 0.0 0.00 0.00 0.00 42 1019.5
20260503213005 80 79 9.0 0.0 0.00 0.00 0.00 43 1019.5
20260503212505 79 7 4.0 0.0 0.00 0.00 0.00 42 1019.5
20260503212005 80 7 13.0 0.0 0.00 0.00 0.00 41 1019.5
20260503211505 80 76 13.0 0.0 0.00 0.00 0.00 42 1019.5
20260503211005 80 42 9.0 0.0 0.00 0.00 0.00 43 1019.5
20260503210505 79 112 4.0 0.0 0.00 0.00 0.00 42 1019.5
20260503210005 80 81 13.0 0.0 0.00 0.00 0.00 42 1019.8
20260503205714 81 359 9.0 0.0 0.00 0.00 0.00 42 1019.5
20260503205005 80 114 0.0 0.0 0.00 0.00 0.00 42 1019.5
20260503204713 79 58 4.0 0.0 0.00 0.00 0.00 44 1019.8
20260503204212 80 72 13.0 0.0 0.00 0.00 0.00 42 1019.8
20260503203505 80 126 4.0 0.0 0.00 0.00 0.00 43 1020.1
20260503203005 79 21 9.0 0.0 0.00 0.00 0.00 42 1020.1
20260503202711 80 37 9.0 0.0 0.00 0.00 0.00 41 1020.5
20260503202005 80 61 9.0 0.0 0.00 0.00 0.00 39 1020.5
20260503201505 80 18 13.0 0.0 0.00 0.00 0.00 42 1020.5
20260503201005 80 60 13.0 0.0 0.00 0.00 0.00 41 1020.5
20260503200711 81 92 4.0 0.0 0.00 0.00 0.00 38 1020.5
20260503200005 81 37 4.0 0.0 0.00 0.00 0.00 39 1020.8
20260503195505 80 139 4.0 0.0 0.00 0.00 0.00 39 1020.8
20260503195005 77 108 4.0 0.0 0.00 0.00 0.00 44 1021.2
20260503194505 78 70 0.0 0.0 0.00 0.00 0.00 43 1021.2
20260503194212 77 96 0.0 0.0 0.00 0.00 0.00 45 1020.8
20260503193505 77 57 4.0 0.0 0.00 0.00 0.00 44 1021.2
20260503193005 78 100 9.0 0.0 0.00 0.00 0.00 43 1021.2
20260503192505 79 181 4.0 0.0 0.00 0.00 0.00 41 1021.2
20260503192005 78 40 4.0 0.0 0.00 0.00 0.00 43 1021.5
20260503191713 77 81 0.0 0.0 0.00 0.00 0.00 44 1021.5
20260503191005 78 33 13.0 0.0 0.00 0.00 0.00 44 1021.5
20260503190505 78 115 4.0 0.0 0.00 0.00 0.00 41 1021.5
20260503190212 78 41 9.0 0.0 0.00 0.00 0.00 43 1021.8
20260503185505 78 353 9.0 0.0 0.00 0.00 0.00 44 1021.8
20260503185005 77 22 4.0 0.0 0.00 0.00 0.00 45 1022.2
20260503184504 78 29 4.0 0.0 0.00 0.00 0.00 45 1022.2
20260503184005 80 15 13.0 0.0 0.00 0.00 0.00 42 1022.2
20260503183713 79 23 4.0 0.0 0.00 0.00 0.00 43 1022.2
20260503183005 78 94 4.0 0.0 0.00 0.00 0.00 45 1022.2
20260503182506 77 121 9.0 0.0 0.00 0.00 0.00 44 1022.2
20260503182006 77 318 9.0 0.0 0.00 0.00 0.00 45 1022.5
20260503181505 78 123 0.0 0.0 0.00 0.00 0.00 42 1022.2
20260503181005 78 121 4.0 0.0 0.00 0.00 0.00 45 1022.5
20260503180505 79 70 32.0 0.0 0.00 0.00 0.00 42 1022.9
20260503180005 80 349 9.0 0.0 0.00 0.00 0.00 44 1022.5
20260503175505 78 299 18.0 0.0 0.00 0.00 0.00 42 1022.9
20260503175005 77 51 4.0 0.0 0.00 0.00 0.00 43 1022.9
20260503174712 77 34 13.0 0.0 0.00 0.00 0.00 45 1023.2
20260503174005 77 25 9.0 0.0 0.00 0.00 0.00 45 1023.2
20260503173505 78 80 4.0 0.0 0.00 0.00 0.00 43 1023.2
20260503173005 78 358 4.0 0.0 0.00 0.00 0.00 42 1023.2
20260503172712 78 42 13.0 0.0 0.00 0.00 0.00 43 1023.2
20260503172005 77 75 13.0 0.0 0.00 0.00 0.00 44 1023.2
20260503171505 77 53 9.0 0.0 0.00 0.00 0.00 46 1023.5
20260503171005 77 76 9.0 0.0 0.00 0.00 0.00 47 1023.5
20260503170505 77 3 9.0 0.0 0.00 0.00 0.00 47 1023.5
20260503151005 74 57 0.0 0.0 0.00 0.00 0.00 54 1023.9
20260503150713 74 299 4.0 0.0 0.00 0.00 0.00 53 1023.9
20260503140212 71 266 0.0 0.0 0.00 0.00 0.00 61 1023.2
20260503131005 65 228 0.0 0.0 0.00 0.00 0.00 74 1022.9
20260503130505 65 224 4.0 0.0 0.00 0.00 0.00 77 1022.9
20260503120211 62 236 0.0 0.0 0.00 0.00 0.00 89 1022.2
20260503110505 61 101 0.0 0.0 0.00 0.00 0.00 90 1022.2
20260503110213 61 101 0.0 0.0 0.00 0.00 0.00 90 1021.8
20260503100212 62 100 0.0 0.0 0.00 0.00 0.00 87 1022.2
20260503090505 62 99 0.0 0.0 0.00 0.00 0.00 86 1021.8
20260503081212 63 99 0.0 0.0 0.00 0.00 0.00 85 1022.5
20260503080505 63 86 0.0 0.0 0.00 0.00 0.00 86 1022.5
20260503072505 62 86 0.0 0.0 0.00 0.00 0.00 86 1022.5
20260503072005 62 85 0.0 0.0 0.00 0.00 0.00 86 1022.2
20260503071505 62 85 0.0 0.0 0.00 0.00 0.00 85 1022.5
20260503071211 62 85 0.0 0.0 0.00 0.00 0.00 84 1022.5
20260503070505 62 86 0.0 0.0 0.00 0.00 0.00 83 1022.9